Location: Unspecified
(0.0000°N, 0.0000°E)
Time: 20:44:29
(UTC+00:00)

Vanguard 2 Rocket - All Passes

Search period start: 25 February 2017 00:00
Search period end: 07 March 2017 00:00
Orbit: 553 x 3329 km, 32.9° (Epoch: 25 February)

Date Brightness Start Highest point End Pass type
(mag) Time Alt. Az. Time Alt. Az. Time Alt. Az.
25 Feb - 02:34:14 10° S 02:38:35 13° SSE 02:43:48 10° SE visible
25 Feb - 04:43:14 10° SSW 04:55:49 46° SE 05:14:02 10° ENE visible
25 Feb - 06:57:00 10° WSW 07:13:52 80° NW 07:34:24 10° NE daylight
25 Feb - 09:16:26 10° W 09:33:50 37° NNW 09:50:03 10° NNE daylight
25 Feb - 11:45:58 10° NW 11:55:28 16° NNW 12:03:26 10° NNE daylight
25 Feb - 16:29:38 10° NNW 16:34:59 19° NNE 16:38:55 10° ENE daylight
25 Feb - 18:43:41 10° WNW 18:49:11 76° SW 18:53:12 10° SE visible
26 Feb - 03:44:37 10° SSW 03:54:44 31° SE 04:09:29 10° E visible
26 Feb - 05:56:51 10° SW 06:11:50 82° SE 06:32:31 10° ENE daylight
26 Feb - 08:13:41 10° W 08:31:11 48° NNW 08:49:40 10° NE daylight
26 Feb - 10:39:07 10° WNW 10:52:34 21° NNW 11:04:06 10° NNE daylight
26 Feb - 13:11:27 10° NNW 13:15:02 11° N 13:18:14 10° N daylight
26 Feb - 15:29:16 10° NNW 15:34:33 15° NNE 15:38:36 10° NE daylight
26 Feb - 17:43:24 10° NW 17:50:04 54° NNE 17:54:24 10° ESE daylight
26 Feb - 20:00:39 10° WSW 20:02:45 13° SW 20:04:44 10° S visible
27 Feb - 02:46:50 10° S 02:53:56 19° SE 03:03:37 10° ESE visible
27 Feb - 04:57:22 10° SW 05:10:17 63° SE 05:29:49 10° ENE visible
27 Feb - 07:12:09 10° WSW 07:28:39 61° NW 07:48:42 10° NE daylight
27 Feb - 09:33:50 10° WNW 09:49:33 28° NNW 10:04:10 10° NNE daylight
27 Feb - 12:04:50 10° NW 12:12:24 14° N 12:18:50 10° NNE daylight
27 Feb - 14:28:07 10° NNW 14:33:33 14° N 14:37:53 10° NE daylight
27 Feb - 16:43:00 10° NW 16:50:29 34° NNE 16:55:15 10° E daylight
27 Feb - 18:59:01 10° W 19:03:46 30° SW 19:07:25 10° SSE visible
28 Feb - 03:58:29 10° SSW 04:09:17 45° SE 04:26:11 10° ENE visible
28 Feb - 06:11:35 10° WSW 06:26:28 77° NW 06:47:06 10° NE daylight
28 Feb - 08:30:10 10° W 08:46:35 36° NNW 09:03:43 10° NNE daylight
28 Feb - 10:58:04 10° NW 11:09:17 17° NNW 11:18:54 10° NNE daylight
28 Feb - 13:25:42 10° NNW 13:31:52 13° N 13:36:55 10° NNE daylight
28 Feb - 15:42:18 10° NNW 15:50:22 26° NNE 15:55:41 10° ENE daylight
28 Feb - 17:58:02 10° WNW 18:04:51 68° SW 18:09:15 10° SE daylight
01 Mar - 03:00:14 10° SSW 03:08:44 29° SE 03:21:35 10° E visible
01 Mar - 05:11:48 10° SW 05:24:46 84° SE 05:44:51 10° NE visible
01 Mar - 07:27:55 10° W 07:43:49 46° NNW 08:02:47 10° NE daylight
01 Mar - 09:52:06 10° WNW 10:05:55 22° NNW 10:18:36 10° NNE daylight
01 Mar - 12:21:42 10° NNW 12:29:28 14° N 12:35:55 10° NNE daylight
01 Mar - 14:41:08 10° NNW 14:49:42 21° NNE 14:55:38 10° ENE daylight
01 Mar - 16:57:05 10° NW 17:05:37 67° NNE 17:10:39 10° ESE daylight
01 Mar - 19:15:48 10° WSW 19:18:17 13° SW 19:20:28 10° S visible
02 Mar - 02:02:56 10° S 02:08:27 17° SE 02:15:45 10° ESE visible
02 Mar - 04:12:37 10° SW 04:23:40 63° SE 04:41:54 10° ENE visible
02 Mar - 06:26:48 10° WSW 06:41:23 58° NNW 07:01:20 10° NE daylight
02 Mar - 08:47:31 10° WNW 09:02:34 27° NNW 09:17:55 10° NNE daylight
02 Mar - 11:16:24 10° NW 11:26:24 16° N 11:34:56 10° NNE daylight
02 Mar - 13:39:19 10° NNW 13:48:24 19° NNE 13:55:02 10° NE daylight
02 Mar - 15:55:59 10° NW 16:05:52 44° NNE 16:11:39 10° E daylight
02 Mar - 18:13:27 10° WNW 18:19:20 31° SW 18:23:24 10° SSE daylight
03 Mar - 03:14:01 10° SSW 03:23:10 43° SE 03:38:13 10° ENE visible
03 Mar - 05:26:36 10° WSW 05:39:27 73° NW 05:59:22 10° NE visible
03 Mar - 07:44:26 10° W 07:59:27 34° NNW 08:16:50 10° NNE daylight
03 Mar - 10:10:42 10° NW 10:22:51 18° N 10:33:51 10° NNE daylight
03 Mar - 12:36:40 10° NNW 12:46:22 17° N 12:53:53 10° NE daylight
03 Mar - 14:54:38 10° NW 15:05:30 33° NNE 15:12:11 10° E daylight
03 Mar - 17:11:48 10° WNW 17:20:19 64° SW 17:25:22 10° SE daylight
04 Mar - 02:16:04 10° SSW 02:23:06 27° SE 02:33:48 10° E visible
04 Mar - 04:27:05 10° SW 04:38:09 87° SE 04:56:53 10° NE visible
04 Mar - 06:42:39 10° W 06:56:43 43° NNW 07:15:23 10° NE daylight
04 Mar - 09:05:37 10° WNW 09:19:10 22° NNW 09:32:36 10° NNE daylight
04 Mar - 11:33:01 10° NNW 11:43:35 17° N 11:52:16 10° NE daylight
04 Mar - 13:52:55 10° NNW 14:04:33 27° NNE 14:12:10 10° ENE daylight
04 Mar - 16:10:12 10° NW 16:20:54 77° NNE 16:26:50 10° ESE daylight
04 Mar - 18:30:13 10° WSW 18:33:44 15° SW 18:36:36 10° S visible
05 Mar - 01:19:23 10° S 01:23:15 14° SE 01:28:04 10° ESE visible
05 Mar - 03:28:10 10° SW 03:37:30 63° SE 03:53:53 10° ENE visible
05 Mar - 05:41:53 10° WSW 05:54:31 54° NNW 06:13:32 10° NE visible
05 Mar - 08:01:45 10° WNW 08:15:39 26° NNW 08:31:08 10° NNE daylight
05 Mar - 10:28:34 10° NW 10:40:08 17° N 10:50:19 10° NE daylight
05 Mar - 12:50:46 10° NNW 13:02:54 23° NNE 13:11:30 10° ENE daylight
05 Mar - 15:08:30 10° NW 15:20:55 53° NNE 15:27:53 10° ESE daylight
05 Mar - 17:27:19 10° WNW 17:34:44 33° SW 17:39:30 10° SSE daylight
06 Mar - 02:29:47 10° SSW 02:37:28 41° SE 02:50:24 10° ENE visible
06 Mar - 04:41:57 10° WSW 04:52:55 69° NNW 05:11:20 10° NE visible
06 Mar - 06:59:12 10° W 07:12:33 32° NNW 07:29:26 10° NNE daylight
06 Mar - 09:23:54 10° NW 09:36:17 19° N 09:48:12 10° NNE daylight
06 Mar - 11:48:05 10° NNW 12:00:30 21° N 12:10:05 10° NE daylight
06 Mar - 14:06:39 10° NW 14:20:17 40° NNE 14:28:24 10° E daylight
06 Mar - 16:25:01 10° WNW 16:35:33 62° SW 16:41:28 10° SE daylight
